Date String (YYYY-MM-DD hh:mm:ss) UTC,Instrument flags,Ambient pressure (hPa),Sample flow (lpm),Bypass flow (lpm),Sample temperature (°C),Ambient temperature (°C),ASC tube jacket temperature (°C),LED temperature (°C),Box temperature (°C),Sample RH (%),Span deviation,Mass concentration (μg/m³),Mass concentration (μg/m³),Mass concentration (μg/m³)
DateTimeUTC,F1_M11,P_M11,Q1_M11,Q2_M11,T1_M11,T2_M11,T3_M11,T4_M11,T5_M11,U1_M11,ZSPAN_M11,X0_M11,X2_M11,X1_M11
2022-08-06 07:00:00,,0827.5,4.99,0.00,29.4,28.3,00.0,38.1,31.4,34.3,0000.0,0016.05,0006.07,0004.60
2022-08-06 07:01:00,,0827.5,5.01,0.00,29.4,28.4,00.0,38.2,31.4,34.2,0000.0,0016.42,0005.99,0004.57
2022-08-06 07:02:00,,0827.5,5.00,0.00,29.5,28.5,00.0,38.2,31.5,34.2,0000.0,0017.72,0006.01,0004.55
2022-08-06 07:03:00,,0827.5,4.98,0.00,29.5,28.6,00.0,38.2,31.5,34.1,0000.0,0018.94,0006.00,0004.52
2022-08-06 07:04:00,,0827.5,5.00,0.00,29.5,28.5,00.0,38.2,31.5,34.0,0000.0,0019.20,0005.99,0004.51
2022-08-06 07:05:00,,0827.5,5.01,0.00,29.5,27.9,00.0,38.2,31.4,34.0,0000.0,0019.57,0005.88,0004.48
2022-08-06 07:06:00,,0827.5,5.00,0.00,29.5,27.5,00.0,38.2,31.3,34.0,0000.0,0018.91,0005.80,0004.46
2022-08-06 07:07:00,,0827.5,4.99,0.00,29.4,27.4,00.0,38.2,31.2,34.1,0000.0,0018.80,0005.77,0004.42
2022-08-06 07:08:00,,0827.5,5.01,0.00,29.4,27.5,00.0,38.2,31.2,34.2,0000.0,0018.60,0005.76,0004.39
2022-08-06 07:09:00,,0827.5,4.99,0.00,29.4,27.6,00.0,38.2,31.2,34.2,0000.0,0018.05,0005.67,0004.35
2022-08-06 07:10:00,,0827.6,5.00,0.00,29.4,27.7,00.0,38.2,31.3,34.3,0000.0,0018.56,0005.61,0004.32
2022-08-06 07:11:00,,0827.5,4.99,0.00,29.4,27.9,00.0,38.2,31.3,34.2,0000.0,0018.33,0005.53,0004.28
2022-08-06 07:12:00,,0827.5,5.00,0.00,29.4,28.0,00.0,38.2,31.3,34.2,0000.0,0017.49,0005.46,0004.26
2022-08-06 07:13:00,,0827.5,5.01,0.00,29.4,28.1,00.0,38.2,31.4,34.2,0000.0,0016.04,0005.38,0004.24
2022-08-06 07:14:00,,0827.5,5.00,0.00,29.4,28.2,00.0,38.2,31.4,34.1,0000.0,0014.91,0005.35,0004.23
2022-08-06 07:15:00,,0827.5,5.00,0.00,29.5,28.3,00.0,38.2,31.5,34.0,0000.0,0014.95,0005.30,0004.20
2022-08-06 07:16:00,,0827.7,5.00,0.00,29.5,28.4,00.0,38.2,31.5,33.9,0000.0,0014.76,0005.33,0004.19
2022-08-06 07:17:00,,0827.5,5.00,0.00,29.5,28.5,00.0,38.3,31.5,33.8,0000.0,0014.49,0005.39,0004.19
2022-08-06 07:18:00,,0827.5,5.01,0.00,29.6,28.6,00.0,38.3,31.6,33.6,0000.0,0015.22,0005.38,0004.18
2022-08-06 07:19:00,,0827.5,5.00,0.00,29.6,28.6,00.0,38.3,31.6,33.6,0000.0,0015.33,0005.38,0004.19
2022-08-06 07:20:00,,0827.5,5.01,0.00,29.6,28.0,00.0,38.3,31.4,33.5,0000.0,0015.22,0005.39,0004.18
2022-08-06 07:21:00,,0827.5,4.98,0.00,29.5,27.5,00.0,38.3,31.4,33.4,0000.0,0014.05,0005.36,0004.16
2022-08-06 07:22:00,,0827.5,5.00,0.00,29.5,27.5,00.0,38.2,31.3,33.5,0000.0,0013.74,0005.31,0004.13
2022-08-06 07:23:00,,0827.5,5.01,0.00,29.4,27.5,00.0,38.2,31.2,33.6,0000.0,0013.89,0005.30,0004.11
2022-08-06 07:24:00,,0827.4,4.99,0.00,29.4,27.6,00.0,38.2,31.2,33.6,0000.0,0014.08,0005.31,0004.11
2022-08-06 07:25:00,,0827.5,5.01,0.00,29.4,27.8,00.0,38.2,31.3,33.5,0000.0,0014.65,0005.32,0004.09
2022-08-06 07:26:00,,0827.4,5.00,0.00,29.4,27.9,00.0,38.2,31.3,33.5,0000.0,0013.81,0005.30,0004.07
2022-08-06 07:27:00,,0827.4,5.00,0.00,29.4,28.0,00.0,38.2,31.4,33.4,0000.0,0012.92,0005.28,0004.06
2022-08-06 07:28:00,,0827.4,5.01,0.00,29.5,28.2,00.0,38.2,31.4,33.4,0000.0,0013.68,0005.22,0004.03
2022-08-06 07:29:00,,0827.4,5.00,0.00,29.5,28.3,00.0,38.3,31.4,33.3,0000.0,0013.60,0005.20,0004.01
2022-08-06 07:30:00,,0827.4,5.00,0.00,29.5,28.4,00.0,38.3,31.5,33.2,0000.0,0013.51,0005.16,0003.98
2022-08-06 07:31:00,,0827.4,5.00,0.00,29.5,28.5,00.0,38.3,31.5,33.0,0000.0,0013.40,0005.12,0003.96
2022-08-06 07:32:00,,0827.4,5.00,0.00,29.6,28.6,00.0,38.3,31.6,33.0,0000.0,0013.68,0005.12,0003.97
2022-08-06 07:33:00,,0827.4,5.00,0.00,29.6,28.5,00.0,38.3,31.5,33.0,0000.0,0013.83,0005.18,0003.97
2022-08-06 07:34:00,,0827.4,5.00,0.00,29.6,27.8,00.0,38.3,31.4,33.0,0000.0,0014.42,0005.23,0003.95
2022-08-06 07:35:00,,0827.4,4.99,0.00,29.5,27.5,00.0,38.3,31.4,33.0,0000.0,0014.70,0005.24,0003.94
2022-08-06 07:36:00,,0827.4,4.99,0.00,29.5,27.4,00.0,38.2,31.3,33.1,0000.0,0015.16,0005.19,0003.94
2022-08-06 07:37:00,,0827.4,5.01,0.00,29.4,27.5,00.0,38.2,31.2,33.3,0000.0,0015.05,0005.17,0003.95
2022-08-06 07:38:00,,0827.4,5.00,0.00,29.4,27.6,00.0,38.2,31.2,33.3,0000.0,0015.02,0005.20,0003.96
2022-08-06 07:39:00,,0827.4,5.00,0.00,29.4,27.7,00.0,38.2,31.3,33.3,0000.0,0014.13,0005.19,0003.96
2022-08-06 07:40:00,,0827.5,5.00,0.00,29.4,27.9,00.0,38.2,31.3,33.3,0000.0,0014.40,0005.25,0003.95
2022-08-06 07:41:00,,0827.5,5.00,0.00,29.4,28.0,00.0,38.2,31.3,33.3,0000.0,0014.09,0005.26,0003.97
2022-08-06 07:42:00,,0827.5,5.01,0.00,29.5,28.1,00.0,38.2,31.4,33.2,0000.0,0014.91,0005.29,0003.98
2022-08-06 07:43:00,,0827.5,4.99,0.00,29.5,28.2,00.0,38.3,31.4,33.2,0000.0,0014.65,0005.29,0003.99
2022-08-06 07:44:00,,0827.5,5.00,0.00,29.5,28.3,00.0,38.3,31.4,33.1,0000.0,0013.34,0005.21,0003.99
2022-08-06 07:45:00,,0827.5,5.00,0.00,29.5,28.4,00.0,38.3,31.5,33.0,0000.0,0013.07,0005.25,0004.01
2022-08-06 07:46:00,,0827.5,5.00,0.00,29.6,28.5,00.0,38.3,31.5,32.9,0000.0,0012.87,0005.31,0004.01
2022-08-06 07:47:00,,0827.5,4.99,0.00,29.6,28.6,00.0,38.3,31.6,32.8,0000.0,0012.11,0005.35,0004.01
2022-08-06 07:48:00,,0827.5,5.01,0.00,29.6,28.1,00.0,38.3,31.4,32.8,0000.0,0012.47,0005.35,0004.00
2022-08-06 07:49:00,,0827.5,5.00,0.00,29.5,27.6,00.0,38.3,31.4,32.7,0000.0,0012.73,0005.32,0003.98
2022-08-06 07:50:00,,0827.6,4.99,0.00,29.5,27.4,00.0,38.2,31.3,32.8,0000.0,0012.57,0005.30,0003.97
2022-08-06 07:51:00,,0827.5,5.00,0.00,29.4,27.4,00.0,38.2,31.2,32.9,0000.0,0012.53,0005.26,0003.97
2022-08-06 07:52:00,,0827.5,5.00,0.00,29.4,27.5,00.0,38.2,31.2,33.0,0000.0,0013.01,0005.26,0003.96
2022-08-06 07:53:00,,0827.5,5.01,0.00,29.4,27.7,00.0,38.2,31.2,33.0,0000.0,0012.54,0005.29,0003.97
2022-08-06 07:54:00,,0827.5,4.99,0.00,29.4,27.8,00.0,38.2,31.3,33.0,0000.0,0013.32,0005.33,0003.97
2022-08-06 07:55:00,,0827.6,5.01,0.00,29.4,27.9,00.0,38.2,31.3,32.9,0000.0,0014.14,0005.44,0003.98
2022-08-06 07:56:00,,0827.6,4.99,0.00,29.4,28.1,00.0,38.2,31.4,32.8,0000.0,0014.38,0005.39,0003.97
2022-08-06 07:57:00,,0827.6,4.99,0.00,29.5,28.2,00.0,38.2,31.4,32.7,0000.0,0013.93,0005.31,0003.97
2022-08-06 07:58:00,,0827.6,5.00,0.00,29.5,28.3,00.0,38.2,31.4,32.6,0000.0,0013.77,0005.27,0003.97
2022-08-06 07:59:00,,0827.7,5.00,0.00,29.5,28.4,00.0,38.3,31.5,32.5,0000.0,0013.69,0005.28,0003.96
